Location: Bullfrog
(37.5121°N, 110.7330°W)
Time: 20:59:44
(UTC-07:00)

Hubble Space Telescope - Pass Details

Date: 26 January 2026
Orbit: 478 x 480 km, 28.5° (Epoch: 9 February)

Event Time Altitude Azimuth Distance (km) Brightness Sun altitude
Rises 18:16:23 0° 234° (SW) 2,507 5.8 -7.5°
Reaches altitude 10° 18:19:06 10° 214° (SW) 1,631 4.1 -8.0°
Maximum altitude 18:21:39 18° 171° (S) 1,240 2.7 -8.5°
Drops below altitude 10° 18:24:13 10° 128° (SE) 1,634 2.9 -9.0°
Enters shadow 18:25:29 - 116° (ESE) 2,018 3.3 -9.2°
